Wind_Speed
33 30 30 29 28 25 23 20 20 21 24 28 28 27 25 23 22 20 20 20 21 23 21 22 19 14 12 9 5 4 4 3 5 6 9 9 19 18 22 28 28 33 33
32 34 36 31 33 26 27 24 23 23 25 28 27 27 24 23 22 21 20 18 21 21 22 23 14 10 6 4 2 0 3 1 6 10 10 15 23 26 26 32 32 35 35
35 36 32 34 32 31 28 27 25 24 26 27 28 27 24 23 22 21 18 18 21 20 20 20 10 5 5 3 1 2 3 6 10 12 17 24 26 28 28 34 34 37 39
39 41 34 33 33 31 28 25 25 24 25 26 28 28 25 23 21 20 17 17 19 20 20 16 6 4 3 1 5 7 6 10 13 13 20 22 25 30 31 35 36 38 41
36 38 41 36 37 34 30 29 26 27 25 27 26 28 26 24 20 21 18 17 17 18 19 15 2 4 3 4 6 10 7 15 15 13 22 26 29 31 34 36 38 40 42
38 39 36 33 35 30 27 29 28 29 26 28 26 28 26 23 21 21 18 17 16 16 16 14 5 8 8 5 9 13 15 17 19 21 23 28 30 33 36 36 39 41 42
43 38 35 33 36 37 36 35 32 32 29 30 28 29 25 23 22 20 18 16 14 15 14 15 10 12 12 10 13 12 17 19 21 24 27 28 30 34 38 37 40 42 42
48 45 43 42 42 40 37 35 35 36 31 32 30 29 27 23 23 21 18 16 11 13 15 14 13 14 16 14 12 14 16 20 22 28 30 29 34 36 41 41 41 44 41
58 55 53 46 40 38 35 35 35 36 34 32 31 28 28 23 24 22 20 17 10 12 15 13 14 16 16 15 17 17 17 19 23 30 33 32 36 40 41 43 41 44 41
56 57 52 46 42 39 37 36 34 34 33 31 32 30 29 25 24 22 22 19 12 11 12 13 14 18 20 21 18 21 25 26 29 35 36 35 36 37 40 43 42 42 39
63 64 63 52 48 45 39 39 37 35 35 33 32 34 32 26 24 24 24 20 18 11 12 13 14 17 23 25 25 26 28 30 33 37 36 33 36 37 40 42 42 40 34
68 69 65 57 53 48 43 42 39 39 39 35 34 34 29 29 25 23 25 23 20 14 12 13 16 18 24 27 27 28 29 31 34 37 35 33 39 38 39 39 40 36 38
70 66 66 57 54 52 51 47 44 42 38 36 36 34 31 29 26 24 24 24 22 19 13 14 17 19 20 27 29 29 30 31 32 35 34 33 40 35 35 38 37 37 38
74 70 65 64 59 57 55 49 48 45 42 39 38 33 30 31 30 28 28 28 23 19 14 15 20 22 19 21 26 28 28 29 30 34 33 34 40 32 34 36 37 38 37
70 68 66 63 63 60 58 53 50 47 45 42 39 35 33 32 32 30 26 27 24 23 21 19 20 24 21 20 22 23 26 27 28 30 32 36 34 29 32 31 33 36 37
65 70 67 65 62 59 58 56 53 49 47 46 41 39 36 37 33 23 24 29 26 23 23 22 19 23 23 20 20 21 23 25 26 27 32 36 22 25 28 26 34 39 41
68 66 65 69 68 59 59 57 54 51 47 49 44 44 41 42 37 33 31 29 26 26 23 22 21 23 22 21 22 21 21 24 26 28 34 26 21 22 26 20 26 32 41
78 74 68 65 69 63 65 63 57 55 50 52 47 47 44 45 42 36 35 33 32 30 25 25 24 24 22 22 21 22 22 24 28 30 33 19 18 21 25 20 20 27 35
70 78 77 69 68 65 67 65 62 60 56 56 51 50 47 47 46 41 37 34 35 30 27 27 28 24 22 21 19 20 21 23 23 22 23 16 15 19 23 22 21 23 31
63 61 70 80 75 70 67 70 65 66 63 62 56 53 49 49 49 44 40 33 34 30 28 28 28 25 21 21 20 19 21 20 20 18 16 11 14 16 21 23 23 22 28
67 63 65 60 76 74 76 71 71 70 66 66 60 57 54 50 49 46 43 40 38 31 29 27 27 25 22 21 21 22 22 20 21 19 17 9 12 16 18 23 22 22 26
64 68 69 67 58 70 71 69 69 71 69 71 69 64 60 54 51 45 42 39 37 33 32 31 29 25 21 23 24 24 22 21 21 22 16 14 13 15 17 21 21 24 27
60 61 70 71 69 60 62 63 65 70 65 71 71 64 62 58 55 50 44 42 42 38 37 34 32 28 25 25 24 24 25 25 26 23 15 15 13 16 18 20 20 23 27
73 60 62 65 69 66 64 60 57 66 74 74 72 66 62 58 57 55 50 47 43 40 38 37 35 31 28 28 26 26 25 24 25 21 14 13 14 16 18 22 24 25 26
71 71 59 64 66 66 68 72 62 58 65 73 76 72 63 62 56 55 54 51 48 45 41 38 38 35 33 29 27 24 22 23 24 17 14 15 15 16 18 21 23 27 28
75 73 71 64 64 68 70 69 68 60 61 69 78 76 71 64 63 59 57 55 51 47 46 45 42 41 36 32 28 27 24 24 24 21 19 18 16 18 16 20 21 26 28
Wind_Direction
258 249 252 254 254 263 265 269 274 284 296 292 294 300 304 313 317 315 324 331 337 333 333 333 335 332 318 319 330 316 308 308 270 290 317 355 359 351 0 356 343 344 338
249 254 254 247 256 254 264 269 268 278 293 287 290 292 302 309 313 310 318 335 342 334 338 343 344 339 341 64 81 201 236 249 341 338 334 351 354 356 350 350 347 346 342
255 258 249 247 251 265 258 265 266 278 283 283 284 290 296 304 312 308 314 332 343 343 345 352 341 8 109 125 36 317 314 326 334 3 5 356 352 350 346 346 347 348 345
259 248 232 242 252 255 259 258 269 277 276 280 280 288 289 298 311 305 309 329 340 349 350 356 347 118 171 261 325 1 337 350 343 344 356 350 349 349 349 347 348 347 345
249 239 247 244 251 250 256 265 266 273 272 277 279 283 286 293 305 306 305 320 335 346 348 350 300 218 290 324 333 348 340 357 357 355 349 341 342 348 345 348 348 346 345
236 231 238 244 248 243 258 261 269 276 270 273 275 281 283 290 299 302 297 322 328 343 344 343 284 245 289 296 332 340 351 341 348 343 342 343 346 349 347 344 346 344 344
222 222 230 241 240 253 264 263 265 271 266 268 271 277 280 286 295 299 292 307 328 336 338 342 291 268 281 299 318 319 329 341 346 342 344 349 352 350 347 347 347 347 346
225 229 244 249 245 252 259 260 265 265 266 265 268 273 274 283 289 293 290 297 319 340 335 332 299 275 281 292 313 312 324 338 340 339 341 343 347 347 350 349 346 348 349
226 229 246 249 250 254 255 258 261 258 265 260 262 268 272 281 283 285 282 285 314 333 337 321 297 276 283 294 299 311 324 332 332 333 340 335 340 344 348 348 346 348 347
230 237 244 250 251 255 257 257 259 256 254 254 260 271 270 274 277 281 274 275 295 320 329 321 293 272 275 286 298 308 315 320 327 334 337 342 339 341 347 346 346 348 348
238 238 247 250 249 249 253 255 255 250 251 256 262 267 270 266 271 280 270 272 280 302 314 317 304 289 270 277 289 299 310 317 326 334 336 340 346 346 345 345 348 351 356
244 244 246 247 247 245 246 251 248 244 252 254 260 263 268 264 268 278 273 272 273 289 305 310 306 292 272 271 280 291 302 310 322 330 331 334 339 346 344 348 354 354 358
245 246 246 248 245 244 243 244 243 246 248 254 257 264 264 262 267 269 269 270 274 275 289 307 310 298 286 269 272 283 295 303 317 323 326 332 337 345 349 353 360 359 1
242 246 244 245 244 242 239 239 240 242 245 248 254 262 262 261 266 270 265 272 269 277 282 298 309 300 291 284 278 282 292 302 314 319 324 332 337 344 350 358 8 7 7
235 239 241 244 245 243 242 240 239 238 241 247 250 253 260 260 263 277 258 267 269 279 276 287 296 301 287 289 290 292 295 304 314 315 323 330 337 346 354 15 21 15 15
235 236 237 241 243 243 243 242 242 239 240 244 247 249 252 257 260 263 263 266 265 276 288 279 290 292 285 288 289 290 294 303 306 318 319 328 343 352 359 27 27 27 25
237 238 238 238 241 240 240 241 242 239 238 244 246 248 248 253 258 260 261 266 260 284 283 286 285 288 280 288 291 290 291 297 304 310 312 330 335 349 354 16 20 23 24
235 240 239 238 239 238 237 237 238 238 236 241 243 246 246 249 255 254 260 262 269 278 281 289 288 285 278 284 290 293 297 297 304 310 311 325 327 346 348 3 9 17 16
230 233 237 239 241 237 238 238 236 239 236 237 239 243 243 246 250 255 257 261 264 272 277 279 283 280 281 281 286 294 297 304 310 320 318 327 322 343 340 357 5 4 7
235 232 235 236 239 241 238 239 236 235 237 237 237 242 242 246 249 252 255 255 258 268 274 267 274 281 279 278 287 290 293 302 306 317 325 317 315 340 336 347 356 350 350
243 238 235 233 231 237 240 240 239 236 236 239 239 239 241 244 246 250 253 255 257 256 268 262 263 276 276 275 281 287 288 294 300 310 312 289 307 331 334 344 350 349 343
238 238 240 238 228 229 235 237 239 238 236 242 241 238 240 241 244 247 248 251 253 248 258 259 256 267 279 273 273 282 282 290 302 309 304 285 301 320 330 329 340 352 354
235 237 239 241 238 224 229 233 238 238 236 237 241 237 238 241 242 239 242 242 243 245 251 256 253 258 270 273 270 281 280 290 296 303 285 286 299 314 317 331 342 345 348
234 235 235 240 241 236 228 226 230 236 237 238 241 240 235 237 239 239 238 239 240 242 246 255 247 255 266 272 265 276 277 286 294 294 267 285 304 304 313 320 328 341 342
232 231 230 235 240 238 232 232 228 231 237 240 241 242 235 233 236 236 238 240 240 241 242 246 247 253 263 264 261 267 272 283 288 276 281 278 295 308 311 317 319 332 343
233 233 232 232 236 238 237 234 230 230 231 235 238 241 240 235 234 236 236 240 239 242 242 244 245 248 256 260 257 259 268 275 284 269 289 276 288 302 319 322 321 328 338
Height
10880 10882 10883 10887 10888 10890 10892 10892 10892 10894 10894 10896 10896 10896 10895 10894 10893 10891 10889 10886 10883 10881 10879 10876 10873 10870 10869 10868 10868 10868 10868 10868 10867 10867 10865 10863 10861 10857 10854 10852 10847 10841 10835
10872 10877 10879 10881 10884 10886 10888 10888 10889 10891 10892 10893 10895 10894 10894 10892 10891 10889 10887 10885 10882 10880 10877 10874 10871 10869 10869 10869 10869 10869 10868 10868 10867 10866 10863 10862 10858 10855 10852 10848 10843 10837 10831
10865 10871 10872 10876 10878 10881 10883 10885 10887 10888 10890 10891 10892 10892 10892 10890 10889 10887 10886 10884 10881 10878 10876 10873 10871 10870 10870 10871 10870 10869 10869 10868 10866 10864 10862 10860 10856 10853 10849 10844 10839 10833 10827
10859 10863 10868 10872 10874 10877 10879 10879 10884 10885 10886 10888 10890 10890 10889 10888 10887 10886 10885 10883 10880 10878 10876 10873 10872 10871 10871 10871 10871 10870 10869 10868 10866 10864 10861 10857 10854 10850 10846 10841 10836 10830 10823
10853 10858 10862 10866 10869 10872 10876 10877 10879 10882 10881 10884 10887 10887 10886 10886 10885 10884 10883 10881 10879 10877 10875 10873 10873 10872 10872 10872 10871 10871 10870 10867 10866 10863 10860 10856 10851 10847 10843 10838 10832 10826 10819
10847 10853 10857 10859 10863 10866 10870 10873 10876 10878 10878 10881 10884 10884 10884 10884 10883 10882 10882 10880 10878 10876 10874 10874 10873 10872 10872 10872 10870 10869 10868 10866 10865 10861 10858 10853 10849 10845 10840 10835 10829 10823 10816
10843 10846 10850 10854 10858 10861 10865 10869 10872 10874 10875 10878 10880 10881 10882 10882 10881 10880 10880 10879 10877 10875 10873 10873 10873 10872 10871 10871 10869 10868 10866 10865 10862 10859 10855 10851 10847 10843 10838 10832 10825 10819 10812
10837 10840 10843 10848 10852 10856 10860 10863 10867 10871 10872 10874 10877 10878 10878 10880 10879 10878 10878 10877 10875 10874 10873 10872 10871 10870 10870 10869 10867 10865 10864 10862 10860 10857 10853 10848 10844 10840 10834 10828 10823 10816 10808
10831 10834 10839 10841 10844 10850 10855 10858 10861 10866 10868 10870 10873 10874 10875 10877 10876 10876 10876 10875 10873 10872 10872 10871 10870 10869 10868 10867 10866 10864 10862 10860 10858 10855 10851 10846 10843 10837 10831 10825 10819 10812 10805
10819 10825 10830 10834 10837 10844 10850 10853 10856 10860 10862 10866 10869 10870 10871 10873 10872 10873 10873 10873 10871 10870 10870 10870 10868 10867 10866 10865 10864 10861 10859 10858 10856 10853 10849 10844 10840 10834 10829 10822 10816 10809 10802
10809 10815 10822 10827 10831 10839 10844 10847 10852 10855 10858 10862 10865 10865 10867 10868 10869 10869 10869 10869 10869 10867 10867 10867 10866 10865 10864 10862 10861 10859 10856 10854 10852 10850 10846 10842 10838 10832 10827 10820 10814 10806 10799
10797 10806 10815 10818 10824 10831 10837 10842 10847 10850 10854 10858 10859 10859 10863 10862 10864 10865 10865 10865 10865 10865 10864 10864 10863 10862 10860 10858 10857 10856 10854 10851 10850 10847 10844 10840 10835 10830 10825 10819 10812 10805 10797
10790 10796 10804 10808 10815 10822 10829 10835 10840 10846 10850 10852 10853 10854 10858 10858 10860 10862 10861 10861 10861 10862 10861 10860 10860 10859 10856 10855 10854 10852 10852 10849 10847 10845 10842 10838 10833 10828 10823 10817 10810 10803 10795
10779 10783 10793 10798 10805 10813 10819 10826 10832 10838 10844 10846 10848 10849 10851 10852 10855 10856 10857 10857 10857 10858 10857 10856 10855 10854 10853 10851 10850 10850 10848 10846 10844 10841 10838 10835 10832 10826 10822 10816 10810 10802 10794
10766 10773 10782 10788 10793 10804 10809 10816 10823 10830 10837 10839 10842 10843 10846 10847 10850 10851 10852 10852 10853 10854 10853 10852 10851 10849 10848 10848 10846 10845 10844 10843 10840 10838 10835 10832 10829 10825 10820 10815 10808 10801 10793
10756 10763 10772 10777 10783 10793 10799 10807 10814 10822 10830 10831 10835 10837 10839 10841 10845 10846 10847 10847 10849 10848 10848 10848 10847 10846 10844 10843 10843 10842 10840 10839 10837 10835 10832 10831 10827 10823 10818 10813 10807 10801 10793
10746 10752 10760 10769 10772 10786 10789 10797 10805 10812 10821 10823 10828 10828 10833 10834 10838 10840 10841 10843 10843 10843 10843 10843 10843 10842 10841 10839 10838 10837 10837 10834 10833 10831 10828 10827 10824 10820 10816 10811 10805 10799 10792
10736 10739 10749 10759 10761 10776 10779 10788 10797 10799 10812 10812 10819 10819 10826 10827 10830 10833 10834 10837 10838 10839 10838 10838 10838 10837 10837 10836 10834 10832 10831 10831 10828 10827 10824 10823 10821 10817 10813 10808 10803 10797 10791
10723 10726 10737 10747 10753 10764 10771 10776 10788 10791 10799 10801 10809 10810 10818 10819 10822 10825 10827 10830 10831 10834 10833 10832 10832 10832 10831 10832 10830 10829 10827 10826 10825 10822 10820 10818 10817 10814 10810 10805 10800 10795 10789
10709 10721 10724 10734 10744 10753 10762 10763 10773 10780 10784 10788 10798 10801 10807 10812 10813 10817 10820 10824 10825 10828 10828 10827 10827 10827 10826 10826 10826 10824 10824 10822 10820 10818 10817 10815 10812 10810 10807 10802 10797 10792 10788
10702 10711 10714 10718 10735 10743 10744 10752 10760 10764 10775 10775 10788 10793 10795 10802 10805 10809 10812 10816 10818 10821 10823 10822 10822 10822 10821 10821 10821 10820 10819 10818 10816 10813 10811 10809 10808 10806 10804 10799 10795 10791 10786
10685 10693 10697 10705 10722 10733 10733 10739 10743 10750 10765 10763 10772 10781 10784 10792 10797 10801 10804 10808 10811 10813 10815 10817 10817 10817 10816 10816 10816 10816 10815 10813 10812 10809 10807 10805 10803 10802 10800 10796 10792 10789 10784
10671 10677 10684 10689 10701 10721 10722 10729 10729 10737 10748 10751 10754 10770 10776 10781 10786 10790 10794 10799 10802 10805 10807 10809 10811 10812 10811 10811 10810 10811 10810 10809 10807 10804 10803 10801 10800 10798 10795 10793 10790 10786 10781
10655 10663 10673 10676 10687 10702 10713 10716 10719 10725 10734 10738 10741 10754 10765 10770 10775 10779 10783 10788 10792 10795 10798 10802 10803 10805 10805 10805 10804 10805 10805 10804 10802 10800 10798 10797 10795 10793 10791 10787 10784 10782 10778
10634 10645 10657 10665 10673 10684 10695 10700 10711 10717 10718 10723 10730 10737 10751 10760 10763 10768 10771 10777 10782 10784 10789 10793 10795 10797 10798 10798 10798 10798 10798 10798 10797 10795 10794 10792 10791 10788 10787 10784 10781 10776 10773
10618 10632 10646 10655 10662 10673 10681 10687 10699 10702 10706 10710 10717 10723 10734 10747 10752 10755 10760 10764 10771 10775 10778 10784 10788 10788 10791 10791 10790 10791 10791 10792 10791 10790 10789 10787 10785 10783 10781 10780 10777 10773 10769